Location: Azenweiler
(47.8027°N, 9.4096°E)
Time: 01:07:01
(UTC+00:00)

Cosmos 158 Rocket - Pass Details

Date: 10 December 2025
Orbit: 695 x 785 km, 74.0° (Epoch: 17 January)

Event Time Altitude Azimuth Distance (km) Brightness Sun altitude
Rises 05:41:05 0° 205° (SSW) 3,257 7.2 -12.6°
Reaches altitude 10° 05:43:29 10° 207° (SSW) 2,327 6.4 -12.3°
Maximum altitude 05:48:47 77° 294° (WNW) 797 3.9 -11.4°
Drops below altitude 10° 05:54:01 10° 20° (NNE) 2,299 6.5 -10.6°
Sets 05:56:23 0° 22° (NNE) 3,215 7.2 -10.3°
